• en France
  • Liste des pays
  • À 7 jours
  • Température de l'eau
  • Carte satellitaire
  • Carte météo
  • Widgets météo
  • user-avatar
    Se connecter

    Météo par heure à Bondoukou

    Ce jour, 25 Février, Dimanche

    Heure Température Précipitation Vent Pression Humidité
    00:00 +28°C° 0 mm 1 m/s 729 mmHg 73%
    01:00 +27°C° 0 mm 1 m/s 728 mmHg 76%
    02:00 +27°C° 0 mm 2 m/s 728 mmHg 78%
    03:00 +27°C° 0 mm 2 m/s 728 mmHg 80%
    04:00 +26°C° 0 mm 1 m/s 728 mmHg 82%
    05:00 +26°C° 0 mm 1 m/s 728 mmHg 83%
    06:00 +26°C° 0 mm 1 m/s 728 mmHg 84%
    07:00 +27°C° 0 mm 1 m/s 728 mmHg 77%
    08:00 +29°C° 0 mm 1 m/s 729 mmHg 70%
    09:00 +30°C° 0 mm 1 m/s 729 mmHg 64%
    10:00 +32°C° 0 mm 1 m/s 729 mmHg 55%
    11:00 +35°C° 0 mm 1 m/s 729 mmHg 46%
    12:00 +37°C° 0 mm 1 m/s 729 mmHg 37%
    13:00 +37°C° 0 mm 1 m/s 728 mmHg 37%
    14:00 +37°C° 0 mm 1 m/s 727 mmHg 36%
    15:00 +37°C° 0 mm 1 m/s 726 mmHg 35%
    16:00 +35°C° 0,1 mm 1 m/s 726 mmHg 39%
    17:00 +32°C° 0,1 mm 0 m/s 726 mmHg 43%
    18:00 +31°C° 0,1 mm 0 m/s 726 mmHg 46%
    19:00 +32°C° 0,1 mm 1 m/s 727 mmHg 49%
    20:00 +32°C° 0,1 mm 1 m/s 727 mmHg 51%
    21:00 +31°C° 0,1 mm 1 m/s 728 mmHg 54%
    22:00 +30°C° 0,4 mm 1 m/s 728 mmHg 58%
    23:00 +29°C° 0,4 mm 2 m/s 728 mmHg 63%

    Demain, 26 Février, Lundi

    Heure Température Précipitation Vent Pression Humidité
    00:00 +28°C° 0,4 mm 2 m/s 728 mmHg 68%
    01:00 +28°C° 0,1 mm 2 m/s 727 mmHg 70%
    02:00 +27°C° 0,1 mm 2 m/s 727 mmHg 71%
    03:00 +27°C° 0,1 mm 2 m/s 726 mmHg 73%
    04:00 +27°C° 0,2 mm 2 m/s 727 mmHg 75%
    05:00 +26°C° 0,2 mm 1 m/s 727 mmHg 78%
    06:00 +26°C° 0,2 mm 1 m/s 727 mmHg 80%
    07:00 +27°C° 0,4 mm 1 m/s 728 mmHg 78%
    08:00 +27°C° 0,4 mm 1 m/s 729 mmHg 76%
    09:00 +28°C° 0,4 mm 2 m/s 729 mmHg 74%
    10:00 +29°C° 2,6 mm 2 m/s 729 mmHg 72%
    11:00 +29°C° 2,6 mm 2 m/s 729 mmHg 69%
    12:00 +30°C° 2,6 mm 2 m/s 729 mmHg 67%
    13:00 +31°C° 0 mm 2 m/s 728 mmHg 63%
    14:00 +32°C° 0 mm 2 m/s 728 mmHg 58%
    15:00 +32°C° 0 mm 2 m/s 727 mmHg 54%
    16:00 +32°C° 0 mm 2 m/s 727 mmHg 57%
    17:00 +31°C° 0 mm 2 m/s 727 mmHg 60%
    18:00 +30°C° 0 mm 2 m/s 727 mmHg 64%
    19:00 +29°C° 0 mm 2 m/s 727 mmHg 66%
    20:00 +29°C° 0 mm 2 m/s 728 mmHg 68%
    21:00 +28°C° 0 mm 2 m/s 728 mmHg 71%
    22:00 +28°C° 0 mm 2 m/s 728 mmHg 72%
    23:00 +28°C° 0 mm 2 m/s 728 mmHg 74%

    Après-demain, 27 Février, Mardi

    Heure Température Précipitation Vent Pression Humidité
    00:00 +27°C° 0 mm 2 m/s 728 mmHg 75%
    01:00 +27°C° 0,3 mm 2 m/s 728 mmHg 77%
    02:00 +26°C° 0,3 mm 2 m/s 727 mmHg 80%
    03:00 +26°C° 0,3 mm 2 m/s 727 mmHg 82%
    04:00 +25°C° 0,1 mm 2 m/s 727 mmHg 84%
    05:00 +25°C° 0,1 mm 2 m/s 727 mmHg 86%
    06:00 +25°C° 0,1 mm 2 m/s 728 mmHg 87%
    07:00 +26°C° 0 mm 2 m/s 728 mmHg 83%
    08:00 +27°C° 0 mm 2 m/s 729 mmHg 78%
    09:00 +28°C° 0 mm 2 m/s 729 mmHg 74%
    10:00 +30°C° 0 mm 2 m/s 729 mmHg 65%
    11:00 +32°C° 0 mm 2 m/s 729 mmHg 57%
    12:00 +35°C° 0 mm 2 m/s 729 mmHg 48%
    13:00 +35°C° 0 mm 2 m/s 728 mmHg 46%
    14:00 +35°C° 0 mm 1 m/s 727 mmHg 43%
    15:00 +36°C° 0 mm 1 m/s 726 mmHg 41%
    16:00 +35°C° 0 mm 1 m/s 726 mmHg 44%
    17:00 +34°C° 0 mm 1 m/s 727 mmHg 47%
    18:00 +33°C° 0 mm 1 m/s 727 mmHg 51%
    19:00 +32°C° 0,5 mm 1 m/s 727 mmHg 56%
    20:00 +31°C° 0,5 mm 2 m/s 728 mmHg 61%
    21:00 +29°C° 0,5 mm 2 m/s 729 mmHg 66%
    22:00 +29°C° 0 mm 2 m/s 728 mmHg 69%
    23:00 +28°C° 0 mm 2 m/s 728 mmHg 72%

    28 Février, Mercredi

    Heure Température Précipitation Vent Pression Humidité
    00:00 +28°C° 0 mm 2 m/s 728 mmHg 75%
    01:00 +27°C° 0 mm 2 m/s 728 mmHg 77%
    02:00 +27°C° 0 mm 2 m/s 727 mmHg 79%
    03:00 +26°C° 0 mm 2 m/s 727 mmHg 81%
    04:00 +26°C° 0 mm 2 m/s 727 mmHg 83%
    05:00 +26°C° 0 mm 2 m/s 727 mmHg 85%
    06:00 +25°C° 0 mm 2 m/s 727 mmHg 88%
    07:00 +27°C° 0 mm 2 m/s 728 mmHg 82%
    08:00 +28°C° 0 mm 2 m/s 729 mmHg 76%
    09:00 +29°C° 0 mm 2 m/s 729 mmHg 71%
    10:00 +31°C° 0 mm 2 m/s 729 mmHg 62%
    11:00 +35°C° 0 mm 2 m/s 729 mmHg 53%
    12:00 +36°C° 0 mm 1 m/s 728 mmHg 44%
    13:00 +36°C° 0 mm 1 m/s 728 mmHg 41%
    14:00 +37°C° 0 mm 1 m/s 727 mmHg 38%
    15:00 +37°C° 0 mm 1 m/s 726 mmHg 35%
    16:00 +36°C° 0 mm 1 m/s 726 mmHg 37%
    17:00 +36°C° 0 mm 1 m/s 726 mmHg 38%
    18:00 +35°C° 0 mm 1 m/s 726 mmHg 40%
    19:00 +34°C° 0 mm 1 m/s 727 mmHg 42%
    20:00 +33°C° 0 mm 1 m/s 728 mmHg 45%
    21:00 +32°C° 0 mm 1 m/s 728 mmHg 48%
    22:00 +31°C° 0 mm 2 m/s 728 mmHg 53%
    23:00 +30°C° 0 mm 2 m/s 728 mmHg 59%

    1 Mars, Jeudi

    Heure Température Précipitation Vent Pression Humidité
    00:00 +29°C° 0 mm 3 m/s 728 mmHg 65%
    01:00 +29°C° 0 mm 3 m/s 727 mmHg 70%
    02:00 +28°C° 0 mm 3 m/s 727 mmHg 75%
    03:00 +27°C° 0 mm 2 m/s 727 mmHg 79%
    04:00 +27°C° 0 mm 2 m/s 727 mmHg 81%
    05:00 +27°C° 0 mm 2 m/s 727 mmHg 83%
    06:00 +26°C° 0 mm 2 m/s 728 mmHg 85%
    07:00 +27°C° 0 mm 2 m/s 728 mmHg 82%
    08:00 +28°C° 0 mm 3 m/s 729 mmHg 79%
    09:00 +28°C° 0 mm 3 m/s 729 mmHg 76%
    10:00 +30°C° 0 mm 3 m/s 729 mmHg 68%
    11:00 +32°C° 0 mm 2 m/s 729 mmHg 59%
    12:00 +35°C° 0 mm 2 m/s 728 mmHg 51%
    13:00 +36°C° 0 mm 2 m/s 727 mmHg 46%
    14:00 +38°C° 0 mm 2 m/s 727 mmHg 40%
    15:00 +39°C° 0 mm 2 m/s 726 mmHg 34%
    16:00 +38°C° 0 mm 2 m/s 726 mmHg 39%
    17:00 +36°C° 0 mm 2 m/s 726 mmHg 43%
    18:00 +35°C° 0 mm 3 m/s 726 mmHg 48%
    19:00 +34°C° 0 mm 3 m/s 727 mmHg 54%
    20:00 +31°C° 0 mm 3 m/s 728 mmHg 60%
    21:00 +30°C° 0 mm 4 m/s 728 mmHg 66%
    22:00 +29°C° 0 mm 4 m/s 728 mmHg 69%
    23:00 +29°C° 0 mm 4 m/s 728 mmHg 73%

    2 Mars, Vendredi

    Heure Température Précipitation Vent Pression Humidité
    00:00 +28°C° 0 mm 4 m/s 728 mmHg 77%
    01:00 +27°C° 0 mm 3 m/s 728 mmHg 79%
    02:00 +27°C° 0 mm 3 m/s 727 mmHg 81%
    03:00 +26°C° 0 mm 3 m/s 727 mmHg 83%
    04:00 +26°C° 0 mm 3 m/s 727 mmHg 84%
    05:00 +26°C° 0 mm 2 m/s 727 mmHg 86%
    06:00 +25°C° 0 mm 2 m/s 728 mmHg 87%
    07:00 +26°C° 0 mm 2 m/s 728 mmHg 82%
    08:00 +27°C° 0 mm 2 m/s 729 mmHg 76%
    09:00 +28°C° 0 mm 3 m/s 729 mmHg 71%
    10:00 +31°C° 0 mm 2 m/s 729 mmHg 63%
    11:00 +34°C° 0 mm 2 m/s 728 mmHg 54%
    12:00 +36°C° 0 mm 2 m/s 728 mmHg 45%
    13:00 +37°C° 0 mm 1 m/s 728 mmHg 40%
    14:00 +39°C° 0 mm 1 m/s 727 mmHg 34%
    15:00 +38°C° 0 mm 0 m/s 726 mmHg 29%
    16:00 +39°C° 0 mm 1 m/s 726 mmHg 32%
    17:00 +37°C° 0 mm 1 m/s 726 mmHg 35%
    18:00 +35°C° 0 mm 1 m/s 727 mmHg 38%
    19:00 +34°C° 0 mm 1 m/s 727 mmHg 41%
    20:00 +33°C° 0 mm 1 m/s 727 mmHg 45%
    21:00 +32°C° 0 mm 1 m/s 728 mmHg 49%
    22:00 +31°C° 0,2 mm 2 m/s 728 mmHg 56%
    23:00 +30°C° 0,2 mm 2 m/s 728 mmHg 63%
    Voir plus